User: anonymous   Login
Location: Indian Springs
(36.5700°N, 115.6700°W)
Time: 18:22:49
(UTC-07:00)
Language:

Cosmos 2278 Rocket - Orbit

View from above orbital plane
View from above orbital plane
View from above satellite
View from above satellite

Ground track
Ground track

The orbit data is extracted from the following two-line orbital elements,

1 23088U 94023B   16145.86312271 -.00000231  00000-0 -95079-4 0  9998
2 23088  71.0014  17.0867 0005098 306.0703  53.9947 14.14644059140624
Epoch (UTC): 24 May 2016 20:42:53
Eccentricity: 0.0005098
inclination: 71.0014°
perigee height: 840 km
apogee height: 847 km
right ascension of ascending node: 17.0867°
argument of perigee: 306.0703°
revolutions per day: 14.14644059
mean anomaly at epoch: 53.9947°
orbit number at epoch: 14062

The dashed part of the orbit path shows where the satellite is in the earth's shadow,  

DLR